Wind_Speed
17 17 17 16 16 16 15 14 13 13 14 14 15 16 17 18 19 20 20 21 21 21 22 22 22 22 21 20 19 19 18 16 15 13 11 9 7 6 4 5 6 8 10 12
17 17 17 16 16 15 15 14 13 13 13 14 15 16 17 18 19 20 20 21 21 22 22 22 22 22 22 21 20 20 19 18 16 14 13 11 10 9 7 6 6 7 8 10
16 16 15 16 16 15 15 15 14 14 14 14 14 15 16 17 18 19 19 20 21 21 21 21 21 21 21 21 20 20 20 19 18 17 17 15 13 12 10 9 8 8 8 9
15 15 15 14 14 14 14 14 14 13 13 13 13 14 14 16 17 18 18 19 20 20 20 20 20 20 20 20 20 20 20 19 19 19 18 17 16 15 14 12 11 9 8 7
14 14 14 13 12 12 12 12 12 12 12 12 13 13 14 14 16 17 17 17 18 18 19 19 19 19 19 19 19 20 20 19 19 19 19 19 18 17 17 15 14 11 9 7
12 13 13 13 12 11 11 11 11 11 11 11 12 13 13 14 14 15 16 16 16 17 17 18 18 19 19 19 20 20 20 20 20 20 20 20 20 20 19 18 17 15 11 9
9 10 11 11 11 11 11 11 10 10 10 10 11 12 12 13 14 14 14 15 15 15 16 17 17 18 18 19 20 20 20 20 20 20 21 21 21 21 21 20 19 17 14 10
7 8 8 9 9 9 9 10 10 9 9 9 9 10 11 12 13 13 14 14 14 15 15 16 16 17 17 18 19 19 20 20 20 21 21 22 22 22 21 21 21 19 16 13
5 6 6 7 7 7 8 8 9 9 8 8 8 9 10 11 12 12 13 13 14 14 14 15 15 16 17 17 18 19 20 20 20 21 22 22 22 23 22 21 21 21 19 16
7 6 6 6 6 6 6 6 7 8 8 8 8 8 9 10 11 11 12 12 13 13 13 14 14 15 16 16 18 19 19 20 20 21 22 23 23 23 22 22 22 21 20 19
9 8 7 7 7 6 6 6 6 7 7 8 8 8 8 9 10 10 11 11 11 12 12 13 13 13 14 15 16 18 19 20 20 21 21 22 23 23 22 22 22 22 21 20
12 12 11 10 9 8 8 7 7 7 7 7 8 8 8 8 9 9 10 10 10 10 11 11 12 13 13 14 15 16 18 19 19 20 21 22 22 22 22 22 22 21 21 21
15 15 14 13 12 11 11 10 9 9 9 8 8 8 8 8 8 9 9 9 9 9 10 10 11 11 12 13 14 15 16 17 18 19 20 20 21 21 21 22 21 21 21 21
18 17 16 16 15 14 14 13 12 11 11 10 10 9 9 9 8 8 9 9 9 9 9 9 10 10 11 12 12 13 15 16 17 18 18 19 20 20 20 20 21 21 20 20
21 20 19 18 18 17 17 16 15 14 13 12 12 11 11 10 10 9 9 9 9 9 9 9 9 9 10 10 11 12 13 14 15 16 17 18 18 19 19 19 19 20 20 20
24 22 22 21 21 20 20 19 19 18 17 15 14 13 13 12 11 10 10 9 9 8 8 9 9 9 9 9 10 10 11 12 12 13 15 16 16 17 17 17 18 18 18 18
28 27 26 25 24 23 23 22 21 21 20 19 18 16 15 14 13 12 11 10 10 9 9 9 9 9 9 9 9 9 9 10 11 11 12 13 14 14 15 15 15 16 16 16
33 32 31 29 28 27 26 25 25 24 23 22 21 20 19 17 16 14 13 12 12 11 10 10 9 9 8 8 8 9 9 9 9 10 10 10 11 12 12 12 13 13 13 13
38 37 35 34 32 31 29 28 28 27 26 25 24 23 22 21 19 18 17 15 14 13 13 12 11 10 10 9 9 9 8 8 8 8 9 9 9 9 9 10 10 10 10 10
44 42 40 39 37 35 33 32 32 30 29 28 27 26 25 24 23 21 20 19 17 16 15 14 14 13 12 11 11 10 9 9 9 8 8 8 8 8 7 7 7 7 7 7
50 48 46 44 42 40 39 37 36 34 33 32 30 30 29 28 26 25 24 22 21 19 18 17 16 15 14 13 13 12 12 11 10 10 9 9 8 8 7 7 6 6 5 4
55 53 51 49 47 45 44 42 41 39 37 35 34 33 32 31 30 28 27 26 24 23 22 21 20 19 18 17 15 15 14 13 13 12 12 11 10 10 9 8 8 7 7 6
59 58 56 54 52 50 49 47 46 44 42 40 39 38 36 35 33 32 31 30 28 26 25 24 24 23 22 21 19 18 17 16 16 15 15 15 14 13 12 12 11 11 10 9
61 61 60 59 57 55 54 52 50 49 47 46 44 43 41 39 37 36 35 34 32 30 29 29 28 26 25 25 24 23 22 21 20 19 18 18 17 17 16 16 15 15 14 14
65 64 63 63 62 60 58 56 55 53 52 50 49 47 46 44 42 41 39 38 36 34 34 33 32 30 29 28 27 26 26 25 24 23 23 22 21 20 20 19 19 19 19 18
66 66 66 66 66 65 63 61 60 58 57 56 54 53 51 49 47 46 44 42 41 40 38 37 36 35 33 33 31 31 30 29 28 28 27 27 26 25 25 24 23 23 23 23
66 67 68 69 69 69 68 66 65 63 62 61 59 58 56 54 53 51 50 48 46 45 44 42 41 40 38 37 36 35 34 34 33 32 32 32 31 31 30 29 29 28 28 27
Wind_Direction
36 35 37 38 37 38 39 41 43 44 46 47 47 47 48 48 49 49 49 48 47 46 47 48 50 50 52 52 51 51 51 50 49 47 44 40 32 17 347 316 290 270 261 256
39 38 39 40 38 39 40 43 45 45 46 47 49 50 51 52 52 50 48 48 48 49 49 51 50 51 51 52 53 52 51 50 48 45 40 34 27 18 0 339 318 296 279 268
39 39 39 40 39 43 44 46 47 47 48 50 52 52 52 51 49 47 47 47 48 48 48 51 52 51 51 51 51 50 48 46 44 41 38 34 29 20 9 354 334 317 298 283
37 37 38 37 40 42 44 46 48 49 49 49 49 50 50 48 46 45 45 46 47 47 48 48 49 49 49 49 47 46 44 42 40 37 34 30 26 21 16 8 357 339 320 303
34 35 34 34 34 36 38 42 45 46 45 45 47 47 46 43 41 41 42 44 45 45 46 47 47 47 47 45 44 42 40 38 37 34 32 28 24 20 16 11 5 356 341 325
30 31 31 31 32 33 35 38 38 40 42 44 44 43 43 39 37 37 39 41 42 43 43 44 44 44 44 43 42 40 38 36 34 31 28 25 22 20 17 13 10 5 357 345
20 24 27 27 29 31 33 31 32 36 39 41 41 41 39 35 33 33 34 36 37 37 38 40 41 41 41 40 38 36 36 34 32 29 26 24 22 19 17 16 14 13 11 7
2 9 14 16 20 24 25 25 26 27 30 32 33 33 30 28 28 30 32 33 34 35 37 39 39 39 39 38 36 34 33 32 30 28 26 25 23 21 20 21 21 23 24 25
323 342 354 2 6 8 11 15 17 18 17 16 18 20 20 20 23 26 28 30 31 33 34 36 36 36 36 36 34 33 32 31 30 28 27 26 25 24 25 26 27 30 32 35
287 301 315 329 340 345 351 358 3 6 8 8 8 10 10 10 13 18 21 24 27 29 31 32 34 34 34 33 32 31 31 30 29 28 28 27 28 28 30 31 32 34 37 41
270 275 284 294 305 313 318 325 334 343 349 354 356 358 360 0 3 6 11 15 19 23 26 28 30 30 28 27 27 27 28 28 28 28 29 29 30 30 33 35 37 38 41 44
264 266 268 274 280 287 293 297 304 312 323 331 336 342 347 350 354 357 0 4 9 14 18 21 24 25 25 25 25 25 26 27 28 28 29 31 32 33 34 36 39 41 44 47
262 262 263 265 268 272 276 282 286 290 298 306 314 321 329 337 343 348 352 355 358 1 5 10 14 17 20 21 23 24 25 26 27 29 30 32 33 34 35 38 41 43 46 49
260 261 262 262 263 265 267 271 275 279 284 288 294 301 307 314 321 330 337 343 348 352 355 357 1 6 11 14 17 20 22 24 26 28 29 32 34 36 37 39 42 45 48 51
258 260 261 261 261 262 263 265 267 270 274 278 282 286 290 296 301 308 316 323 331 339 346 350 352 355 359 5 11 15 18 20 23 26 28 31 34 36 39 41 43 46 49 53
257 259 260 261 261 261 261 262 263 265 267 269 272 276 280 284 289 294 300 306 312 318 328 337 343 346 350 355 1 7 11 15 18 22 25 28 32 35 39 42 44 47 50 54
257 258 258 260 261 261 261 261 262 262 263 264 266 269 272 275 278 282 286 291 296 301 307 315 324 333 339 344 348 353 359 5 10 14 19 23 27 32 37 41 44 47 50 54
255 256 257 259 260 260 260 261 261 261 261 262 263 264 265 268 270 273 276 279 283 287 293 299 305 313 322 331 337 342 346 352 359 5 10 15 20 25 31 36 40 44 48 52
252 253 254 255 256 257 259 260 260 260 260 261 261 261 262 264 265 267 269 272 274 277 280 285 290 295 300 307 315 324 332 336 341 348 356 3 8 12 19 25 31 37 42 48
251 251 251 252 253 255 256 257 258 258 259 259 259 260 260 261 262 263 264 266 268 270 273 276 279 283 287 292 296 301 308 316 324 327 332 340 348 354 359 5 12 19 27 35
249 249 249 250 250 251 252 254 255 256 257 257 257 258 259 260 260 261 262 262 263 265 267 270 272 275 278 282 286 289 292 296 301 307 313 315 319 324 331 335 339 346 352 357
247 248 248 248 248 249 249 251 252 253 254 255 255 256 257 258 259 259 260 260 261 262 263 265 267 269 271 274 277 281 284 287 289 291 294 297 300 301 304 307 308 308 309 310
245 245 246 246 246 246 246 247 249 250 251 252 253 254 255 256 257 257 258 258 259 260 261 262 263 264 266 269 271 273 276 278 281 283 285 286 286 287 288 289 290 290 291 289
243 243 243 243 244 244 244 245 245 246 247 249 250 251 252 254 255 255 255 256 257 258 258 260 261 262 263 265 267 268 270 271 273 275 276 278 280 280 279 279 280 280 280 280
244 242 241 241 241 242 242 242 242 243 244 246 247 249 250 251 252 253 254 255 255 256 257 258 259 260 261 263 264 265 266 267 268 269 270 271 272 274 275 275 274 274 274 274
245 242 240 239 239 239 240 240 240 241 242 243 244 246 247 249 250 251 252 253 253 254 255 257 258 259 260 261 262 263 264 265 266 266 267 268 269 269 270 270 271 271 270 270
245 242 240 239 238 237 237 238 238 239 240 241 242 244 245 247 248 249 250 251 252 253 254 256 257 258 259 260 260 261 262 263 264 265 266 266 266 267 267 267 268 268 269 268
Height
5880 5877 5874 5871 5867 5864 5861 5858 5856 5853 5850 5847 5844 5841 5837 5834 5830 5827 5823 5819 5816 5812 5808 5804 5801 5797 5794 5791 5788 5785 5783 5780 5778 5776 5775 5773 5772 5771 5770 5769 5768 5767 5767 5767
5882 5879 5876 5873 5870 5867 5864 5861 5858 5855 5853 5850 5847 5843 5840 5837 5834 5831 5827 5823 5820 5816 5812 5809 5805 5802 5799 5795 5793 5790 5787 5784 5782 5780 5777 5775 5773 5771 5769 5768 5766 5765 5763 5763
5884 5881 5879 5876 5873 5869 5866 5864 5861 5858 5856 5852 5849 5847 5844 5841 5838 5834 5831 5828 5824 5820 5817 5813 5810 5807 5804 5800 5797 5794 5791 5788 5785 5783 5780 5777 5774 5772 5769 5766 5764 5762 5760 5759
5886 5884 5881 5880 5875 5872 5869 5866 5863 5860 5858 5855 5852 5850 5847 5844 5841 5838 5835 5831 5828 5825 5821 5818 5814 5811 5808 5805 5802 5798 5795 5792 5788 5785 5782 5779 5776 5772 5769 5765 5762 5759 5757 5755
5888 5885 5883 5881 5877 5874 5872 5869 5866 5863 5860 5858 5855 5852 5850 5847 5844 5841 5838 5835 5832 5828 5825 5822 5819 5815 5812 5809 5805 5802 5798 5795 5791 5788 5784 5781 5777 5772 5769 5765 5761 5757 5754 5752
5889 5887 5885 5884 5880 5876 5875 5872 5869 5866 5863 5860 5858 5856 5854 5850 5847 5844 5841 5838 5835 5832 5829 5825 5822 5819 5816 5812 5809 5805 5802 5798 5794 5791 5787 5782 5778 5774 5769 5764 5760 5755 5752 5749
5889 5888 5886 5884 5880 5878 5877 5875 5871 5868 5866 5863 5861 5859 5856 5853 5850 5847 5844 5841 5838 5835 5832 5829 5825 5822 5819 5816 5812 5809 5805 5801 5797 5793 5789 5784 5780 5775 5770 5765 5760 5755 5751 5747
5890 5888 5888 5884 5881 5880 5878 5875 5872 5870 5867 5865 5863 5860 5858 5855 5852 5849 5846 5843 5840 5838 5835 5832 5828 5825 5822 5819 5815 5812 5808 5804 5800 5796 5791 5786 5781 5776 5771 5766 5761 5756 5752 5748
5889 5890 5886 5884 5882 5880 5878 5876 5873 5871 5869 5867 5864 5862 5859 5857 5854 5851 5849 5846 5843 5840 5837 5834 5831 5828 5825 5822 5818 5815 5811 5807 5803 5799 5794 5789 5784 5779 5774 5769 5764 5759 5755 5751
5886 5886 5884 5883 5881 5880 5878 5876 5874 5872 5870 5867 5865 5863 5861 5858 5856 5853 5850 5848 5845 5842 5839 5836 5834 5831 5828 5825 5821 5818 5814 5810 5806 5802 5797 5792 5787 5782 5777 5772 5768 5763 5759 5755
5883 5883 5882 5881 5880 5878 5877 5875 5873 5872 5870 5867 5865 5863 5861 5859 5856 5854 5852 5849 5846 5844 5841 5838 5836 5833 5830 5827 5824 5820 5817 5813 5809 5805 5800 5796 5791 5786 5782 5777 5773 5768 5764 5760
5880 5880 5879 5878 5877 5876 5875 5874 5872 5871 5869 5867 5865 5863 5861 5859 5857 5855 5852 5850 5847 5845 5843 5840 5837 5835 5832 5829 5826 5822 5819 5815 5812 5808 5804 5800 5795 5791 5786 5782 5778 5774 5770 5766
5876 5875 5875 5874 5873 5873 5872 5871 5870 5868 5867 5866 5864 5862 5860 5859 5857 5855 5852 5850 5848 5846 5843 5841 5839 5836 5833 5831 5828 5825 5821 5818 5815 5811 5807 5803 5799 5795 5791 5787 5783 5779 5775 5772
5870 5870 5870 5869 5869 5868 5868 5867 5866 5865 5864 5863 5862 5860 5859 5857 5856 5854 5852 5850 5848 5846 5844 5841 5839 5837 5834 5832 5829 5826 5824 5820 5817 5814 5810 5807 5803 5799 5796 5792 5788 5785 5781 5778
5864 5864 5864 5864 5864 5863 5863 5862 5862 5861 5861 5860 5859 5858 5856 5855 5854 5852 5851 5849 5847 5845 5844 5841 5839 5837 5835 5833 5830 5828 5825 5822 5820 5817 5813 5810 5807 5803 5800 5797 5793 5790 5787 5784
5857 5858 5857 5857 5857 5857 5857 5857 5857 5856 5856 5855 5855 5854 5853 5852 5851 5850 5848 5847 5846 5844 5843 5841 5839 5837 5835 5833 5831 5829 5826 5824 5821 5819 5816 5813 5810 5807 5804 5801 5798 5795 5793 5790
5849 5849 5849 5850 5850 5850 5850 5850 5851 5850 5850 5850 5850 5849 5849 5848 5847 5846 5846 5844 5843 5842 5841 5839 5838 5836 5834 5832 5830 5829 5827 5824 5822 5820 5818 5815 5813 5810 5808 5805 5803 5800 5798 5795
5838 5839 5840 5841 5842 5842 5843 5843 5843 5843 5843 5844 5844 5844 5843 5843 5843 5842 5842 5841 5840 5839 5838 5837 5836 5834 5833 5831 5830 5828 5826 5824 5822 5820 5818 5816 5814 5812 5810 5808 5806 5804 5802 5800
5825 5827 5829 5830 5831 5832 5834 5834 5835 5835 5836 5836 5837 5837 5837 5837 5837 5837 5837 5836 5836 5835 5835 5834 5833 5832 5830 5829 5828 5827 5825 5823 5822 5820 5819 5817 5815 5813 5812 5810 5808 5806 5805 5803
5810 5813 5815 5817 5819 5822 5823 5824 5825 5826 5827 5828 5828 5829 5829 5830 5830 5831 5831 5831 5831 5831 5830 5829 5829 5828 5827 5826 5825 5824 5823 5822 5820 5819 5818 5816 5815 5813 5812 5810 5809 5808 5806 5805
5794 5797 5800 5803 5806 5809 5810 5812 5814 5816 5817 5818 5819 5820 5821 5821 5822 5823 5823 5824 5824 5824 5824 5824 5824 5823 5823 5822 5821 5820 5820 5819 5818 5817 5816 5815 5813 5812 5811 5810 5809 5808 5807 5806
5777 5780 5783 5787 5790 5794 5796 5799 5801 5803 5805 5807 5808 5809 5811 5812 5813 5814 5815 5816 5817 5817 5817 5817 5817 5817 5817 5817 5816 5816 5815 5815 5814 5813 5812 5812 5811 5810 5809 5808 5807 5806 5805 5805
5758 5761 5765 5769 5773 5776 5780 5783 5786 5789 5792 5794 5796 5797 5799 5801 5802 5804 5805 5806 5807 5808 5809 5809 5810 5810 5810 5810 5810 5810 5809 5809 5809 5808 5808 5807 5806 5806 5805 5805 5804 5803 5802 5802
5737 5741 5745 5750 5754 5758 5762 5766 5769 5773 5776 5779 5781 5784 5786 5788 5791 5792 5794 5795 5797 5798 5799 5800 5800 5801 5801 5801 5802 5802 5802 5802 5802 5802 5801 5801 5801 5800 5800 5800 5799 5799 5798 5798
5714 5720 5724 5729 5733 5738 5742 5746 5750 5754 5758 5762 5765 5768 5771 5774 5776 5779 5780 5783 5785 5786 5787 5788 5789 5790 5791 5792 5792 5793 5793 5794 5794 5794 5794 5794 5794 5793 5793 5793 5793 5792 5792 5792
5689 5695 5701 5706 5711 5716 5721 5726 5730 5735 5739 5743 5747 5750 5754 5757 5760 5763 5766 5768 5770 5772 5774 5776 5777 5779 5780 5781 5782 5782 5783 5784 5784 5784 5785 5785 5785 5785 5785 5785 5785 5785 5784 5784
5664 5671 5677 5682 5688 5693 5698 5703 5708 5713 5718 5723 5727 5731 5735 5739 5742 5746 5749 5752 5754 5757 5759 5761 5763 5765 5767 5768 5769 5770 5771 5772 5773 5773 5774 5774 5775 5775 5775 5775 5775 5775 5775 5775